Ashtabula, OH

7:13 PM EDT on April 24, 2017 (GMT -0400)
Ashtabula County

Weather History for KHZY - November, 2013

Change the Weather History Date:

Tuesday, November 5, 2013

  Actual Average (KGKJ) Record (KGKJ)
Temperature  
Mean Temperature 47 °F -  
Max Temperature 55 °F 51 °F 73 °F (2015)
Min Temperature 39 °F 34 °F 12 °F (1951)
Degree Days  
Heating Degree Days 18    
Moisture  
Dew Point 29 °F    
Average Humidity 49    
Maximum Humidity 55    
Minimum Humidity 43    
Precipitation  
Precipitation 0.00 in - - ()
Sea Level Pressure  
Sea Level Pressure 30.41 in    
Wind  
Wind Speed 8 mph (SSE)    
Max Wind Speed 13 mph    
Max Gust Speed 17 mph    
Visibility 10 miles    
Events      
Averages and records for this station are not official NWS values.
T = Trace of Precipitation, MM = Missing Value Source: NWS Daily Summary

Daily Weather History Graph

Daily Weather History Graph

Search for Another Location

Airport or City:

Trip Planner

Search our weather history database for the weather conditions in past years. The results will help you decide how hot, cold, wet, or windy it might be!

Date:

Astronomy

Nov. 05, 2013 Rise Set
Actual Time 7:00 AM EST 5:12 PM EST
Civil Twilight 6:30 AM EST 5:41 PM EST
Nautical Twilight 5:57 AM EST 6:14 PM EST
Astronomical Twilight 5:25 AM EST 6:46 PM EST
Moon 9:14 AM EST (11/5) 7:10 PM EST (11/5)
Length of Visible Light 11h 10m
Length of Day
10h 11m
Waxing Crescent, 6% of the Moon is Illuminated
Nov 5
Waxing Crescent
Nov 10
First Quarter
Nov 17
Full
Nov 25
Last Quarter
Dec 2
New

Hourly Weather History & Observations

Time (EST) Temp. Windchill Dew Point Humidity Pressure Visibility Wind Dir Wind Speed Gust Speed Precip Events Conditions
12:53 AM 39.9 °F 35.1 °F 21.9 °F 49% 30.43 in 10.0 mi South 6.9 mph - N/A   Clear
1:53 AM 39.0 °F 34.0 °F 23.0 °F 53% 30.44 in 10.0 mi South 6.9 mph - N/A   Clear
2:53 AM 39.0 °F 33.4 °F 23.0 °F 53% 30.43 in 10.0 mi South 8.1 mph - N/A   Clear
3:53 AM 39.0 °F 32.8 °F 23.0 °F 53% 30.44 in 10.0 mi South 9.2 mph - N/A   Clear
4:53 AM 39.0 °F 32.8 °F 23.0 °F 53% 30.45 in 10.0 mi SSE 9.2 mph - N/A   Clear
5:53 AM 39.9 °F 34.5 °F 25.0 °F 55% 30.45 in 10.0 mi SSE 8.1 mph - N/A   Clear
6:53 AM 39.9 °F 35.1 °F 25.0 °F 55% 30.45 in 10.0 mi South 6.9 mph - N/A   Partly Cloudy
7:53 AM 41.0 °F 35.2 °F 26.1 °F 55% 30.47 in 10.0 mi South 9.2 mph - N/A   Overcast
8:53 AM 43.0 °F 37.7 °F 27.0 °F 53% 30.46 in 10.0 mi SSE 9.2 mph - N/A   Overcast
9:53 AM 46.9 °F - 28.9 °F 50% 30.45 in 10.0 mi SSE 8.1 mph - N/A   Partly Cloudy
10:53 AM 48.9 °F - 30.9 °F 50% 30.45 in 10.0 mi South 8.1 mph - N/A   Clear
11:53 AM 48.9 °F - 30.9 °F 50% 30.45 in 10.0 mi South 9.2 mph - N/A   Scattered Clouds
12:53 PM 51.1 °F - 32.0 °F 48% 30.42 in 10.0 mi South 11.5 mph - N/A   Scattered Clouds
1:53 PM 53.1 °F - 33.1 °F 47% 30.40 in 10.0 mi South 12.7 mph 17.3 mph N/A   Clear
2:53 PM 55.0 °F - 34.0 °F 45% 30.39 in 10.0 mi Variable 6.9 mph - N/A   Overcast
3:53 PM 55.0 °F - 33.1 °F 43% 30.39 in 10.0 mi South 5.8 mph - N/A   Overcast
4:53 PM 53.1 °F - 34.0 °F 48% 30.38 in 10.0 mi Calm Calm - N/A   Scattered Clouds
5:53 PM 53.1 °F - 33.1 °F 47% 30.38 in 10.0 mi SSE 5.8 mph - N/A   Clear
6:53 PM 52.0 °F - 34.0 °F 50% 30.38 in 10.0 mi South 5.8 mph - N/A   Clear
7:53 PM 53.1 °F - 30.9 °F 43% 30.35 in 10.0 mi SSE 8.1 mph - N/A   Clear
8:53 PM 50.0 °F - 32.0 °F 50% 30.35 in 10.0 mi South 9.2 mph - N/A   Clear
9:53 PM 51.1 °F - 30.9 °F 46% 30.34 in 10.0 mi SSE 8.1 mph - N/A   Clear
10:53 PM 50.0 °F - 28.9 °F 44% 30.32 in 10.0 mi SSE 10.4 mph - N/A   Clear
11:53 PM 48.9 °F - 28.0 °F 44% 30.30 in 10.0 mi SSE 10.4 mph - N/A   Clear